Temp
8 8 8 8 8 8 8 8 7 7 6 5 5 5 4 3 3 3 4 4 4 4 4 4 4 4 4 4 4 4 5 5 5 6 7 7 7 7 7 7 7 7
6 7 7 7 7 7 7 8 7 7 6 6 5 5 5 4 4 4 4 3 3 3 3 3 3 3 3 4 4 4 4 4 4 5 6 6 7 7 7 7 7 7
5 5 5 5 6 6 6 6 7 7 6 6 6 5 5 5 4 4 4 4 3 3 3 3 3 3 3 3 3 3 4 3 3 4 5 5 6 6 6 6 7 7
4 5 5 5 5 5 5 5 6 6 6 6 6 5 5 5 4 4 4 5 4 4 3 2 2 2 2 3 3 3 3 3 3 3 3 4 5 5 6 6 6 6
4 4 4 4 5 5 5 5 5 5 5 5 6 6 5 5 5 4 4 4 4 4 4 3 3 2 2 2 2 2 3 3 3 3 3 3 4 4 5 5 6 6
4 4 4 4 4 4 4 5 4 5 5 5 5 5 5 5 5 5 5 4 4 4 4 4 4 3 2 2 1 2 2 2 2 2 2 3 3 4 4 4 5 5
3 3 3 3 3 3 3 4 4 4 4 4 4 4 5 5 5 5 5 5 4 4 4 4 4 4 3 3 2 1 1 1 2 2 2 2 3 3 3 3 4 4
3 3 3 3 3 3 3 3 3 3 4 4 4 4 4 4 4 5 5 5 5 4 4 4 4 4 3 3 3 2 2 1 1 1 1 2 2 3 3 3 3 3
2 2 2 2 2 2 2 2 2 2 2 3 3 3 3 3 3 4 4 4 5 5 4 4 4 4 3 3 3 3 3 2 1 1 1 1 1 2 2 3 3 3
2 1 2 2 2 2 1 1 1 1 1 1 1 2 2 2 2 3 3 3 4 4 4 4 4 4 3 3 2 2 2 2 2 1 1 1 0 1 1 1 2 3
1 1 1 1 1 1 1 1 0 0 0 0 1 1 1 1 1 2 2 2 3 3 3 3 3 3 3 3 2 2 1 1 1 1 1 1 1 0 0 0 1 1
1 1 1 1 0 -0 -0 0 0 -0 -0 -0 -0 -0 -0 -0 0 0 0 1 1 1 2 2 2 2 2 2 2 2 2 1 0 -0 0 0 1 1 1 -0 -0 0
1 1 1 1 0 0 -0 -1 -1 -1 -1 -1 -1 -1 -1 -1 -1 -1 -1 -0 -0 -0 0 1 1 1 1 1 1 2 2 1 0 -0 -0 -0 0 1 1 1 1 0
-0 -0 0 0 0 0 0 -0 -0 -1 -1 -1 -1 -1 -1 -1 -1 -1 -1 -1 -1 -1 -1 -0 -0 0 0 0 0 0 1 1 1 0 -0 -0 -0 0 0 1 1 1
-2 -2 -1 -1 -1 -0 -0 -0 -0 -0 -0 -1 -1 -1 -2 -2 -2 -2 -2 -1 -1 -1 -1 -1 -1 -1 -1 -1 -1 -1 -1 0 1 1 0 -1 -1 0 0 0 0 1
-2 -2 -2 -2 -1 -1 -1 -1 -1 -1 -0 -0 -0 -1 -1 -2 -2 -2 -2 -2 -2 -2 -2 -2 -2 -2 -2 -1 -1 -2 -2 -1 -1 -0 0 -0 -1 -1 -0 0 0 0
-3 -3 -2 -2 -2 -2 -2 -2 -2 -1 -1 -1 -1 -0 -1 -1 -2 -2 -2 -2 -2 -2 -2 -2 -2 -2 -2 -2 -2 -2 -2 -2 -2 -2 -1 -1 -1 -1 -1 -1 -0 -0
-4 -3 -3 -3 -3 -3 -2 -2 -2 -2 -2 -2 -2 -1 -1 -1 -1 -1 -2 -2 -2 -2 -2 -2 -2 -2 -2 -2 -2 -2 -2 -2 -2 -2 -2 -2 -1 -1 -1 -1 -2 -2
-4 -4 -4 -4 -3 -3 -3 -3 -3 -3 -3 -3 -2 -2 -2 -2 -1 -1 -1 -2 -2 -2 -2 -2 -2 -2 -2 -2 -2 -2 -2 -2 -2 -2 -2 -2 -2 -1 -1 -1 -2 -3
-5 -5 -4 -4 -4 -4 -4 -4 -3 -3 -3 -3 -3 -3 -3 -2 -2 -2 -2 -2 -2 -2 -2 -2 -2 -2 -2 -2 -2 -2 -2 -2 -2 -2 -2 -3 -3 -2 -2 -1 -1 -2
-5 -5 -5 -5 -4 -4 -4 -4 -4 -4 -4 -4 -4 -4 -3 -3 -3 -2 -2 -2 -2 -2 -2 -2 -2 -2 -2 -2 -2 -2 -2 -2 -3 -3 -2 -3 -3 -3 -3 -2 -2 -2
-6 -6 -7 -6 -6 -5 -5 -5 -5 -5 -5 -5 -5 -5 -4 -4 -4 -3 -3 -3 -2 -2 -2 -2 -2 -2 -2 -2 -2 -2 -2 -3 -3 -3 -3 -3 -3 -3 -3 -3 -3 -3
-8 -8 -8 -9 -8 -7 -6 -6 -6 -6 -5 -5 -6 -6 -5 -5 -4 -4 -4 -3 -3 -3 -2 -2 -2 -2 -2 -2 -2 -2 -2 -3 -3 -3 -3 -3 -3 -3 -3 -3 -3 -3
-9 -9 -10 -10 -10 -10 -9 -8 -8 -7 -7 -6 -6 -6 -6 -5 -5 -5 -5 -4 -4 -3 -3 -3 -2 -2 -2 -3 -2 -2 -3 -3 -3 -3 -3 -3 -3 -3 -3 -3 -3 -3
-10 -11 -11 -11 -11 -12 -12 -12 -11 -11 -10 -9 -9 -9 -8 -7 -6 -5 -5 -5 -5 -4 -4 -4 -3 -3 -2 -3 -3 -3 -3 -3 -3 -3 -3 -3 -3 -3 -3 -3 -3 -3
-12 -12 -12 -13 -13 -13 -13 -14 -14 -14 -13 -13 -13 -12 -12 -11 -9 -7 -6 -5 -5 -5 -5 -4 -4 -4 -3 -3 -3 -3 -3 -3 -4 -4 -4 -3 -3 -3 -3 -3 -3 -3
Height
1456 1456 1455 1453 1451 1449 1448 1447 1446 1446 1446 1446 1446 1445 1445 1444 1443 1442 1442 1443 1443 1443 1444 1444 1444 1445 1445 1446 1447 1448 1449 1450 1452 1455 1458 1460 1462 1464 1466 1468 1470 1471
1457 1456 1456 1454 1452 1450 1448 1446 1446 1445 1445 1444 1444 1444 1443 1443 1442 1441 1440 1440 1440 1440 1440 1441 1441 1442 1442 1442 1443 1444 1445 1446 1447 1450 1452 1454 1455 1458 1460 1462 1465 1466
1458 1458 1457 1456 1453 1450 1448 1447 1446 1445 1444 1443 1443 1442 1441 1440 1440 1439 1439 1439 1438 1437 1437 1438 1438 1438 1439 1439 1440 1440 1440 1442 1443 1445 1447 1448 1450 1452 1454 1457 1460 1461
1459 1458 1457 1455 1452 1448 1446 1446 1446 1445 1443 1442 1441 1440 1439 1438 1438 1437 1437 1437 1437 1436 1435 1435 1435 1435 1435 1436 1436 1436 1436 1437 1438 1441 1442 1443 1445 1447 1449 1452 1454 1455
1457 1455 1453 1452 1449 1446 1445 1445 1444 1443 1442 1441 1440 1439 1438 1437 1437 1436 1435 1434 1434 1434 1433 1433 1432 1432 1432 1432 1433 1433 1433 1433 1434 1436 1437 1437 1439 1442 1444 1446 1447 1449
1454 1452 1450 1449 1447 1445 1444 1443 1443 1442 1442 1441 1440 1440 1438 1437 1436 1435 1433 1432 1431 1431 1430 1430 1429 1429 1429 1429 1429 1429 1429 1430 1431 1432 1432 1432 1434 1436 1438 1440 1441 1443
1452 1450 1449 1448 1446 1444 1442 1442 1442 1442 1441 1440 1440 1440 1438 1437 1436 1434 1432 1430 1429 1428 1427 1427 1427 1426 1426 1426 1426 1426 1426 1426 1427 1428 1428 1428 1429 1431 1432 1434 1436 1437
1451 1450 1448 1447 1445 1443 1441 1441 1441 1441 1440 1439 1439 1439 1438 1437 1435 1433 1431 1429 1427 1426 1424 1424 1423 1423 1423 1423 1423 1422 1423 1423 1423 1424 1424 1424 1425 1425 1427 1428 1430 1432
1450 1448 1447 1445 1443 1442 1441 1441 1440 1440 1439 1438 1437 1437 1436 1435 1434 1432 1430 1428 1426 1424 1423 1421 1420 1419 1419 1419 1419 1419 1419 1419 1420 1420 1420 1420 1420 1421 1422 1424 1424 1425
1447 1446 1445 1444 1442 1442 1441 1441 1440 1439 1438 1437 1436 1435 1433 1433 1431 1430 1429 1427 1425 1423 1421 1420 1418 1417 1416 1416 1416 1416 1415 1415 1415 1415 1415 1415 1416 1416 1417 1419 1419 1419
1445 1444 1443 1442 1442 1441 1441 1440 1439 1438 1437 1435 1434 1432 1431 1430 1429 1427 1426 1424 1423 1421 1420 1418 1417 1415 1414 1413 1412 1412 1412 1411 1411 1411 1411 1411 1411 1411 1412 1413 1414 1413
1445 1444 1443 1442 1441 1441 1440 1439 1438 1436 1435 1434 1432 1431 1429 1428 1426 1425 1424 1422 1420 1419 1417 1416 1415 1413 1412 1410 1410 1409 1408 1408 1407 1406 1406 1406 1406 1406 1406 1407 1407 1407
1446 1445 1443 1442 1441 1439 1438 1437 1436 1435 1433 1432 1431 1429 1428 1426 1424 1423 1421 1420 1418 1416 1415 1413 1412 1411 1410 1408 1407 1406 1405 1404 1403 1402 1401 1401 1401 1401 1401 1401 1401 1401
1445 1444 1443 1442 1440 1439 1437 1436 1434 1432 1431 1429 1428 1427 1425 1424 1422 1420 1419 1417 1415 1413 1412 1410 1408 1407 1406 1405 1404 1403 1401 1400 1398 1397 1396 1395 1395 1395 1395 1395 1394 1395
1443 1442 1440 1440 1438 1437 1436 1434 1432 1430 1428 1427 1425 1424 1423 1421 1419 1418 1416 1414 1412 1410 1409 1407 1405 1404 1403 1402 1400 1399 1398 1396 1394 1393 1391 1390 1389 1389 1389 1388 1388 1388
1441 1439 1438 1436 1434 1433 1432 1431 1429 1428 1426 1424 1422 1420 1419 1417 1416 1414 1413 1411 1409 1407 1406 1404 1402 1401 1399 1398 1396 1395 1394 1392 1390 1389 1387 1385 1383 1382 1382 1382 1382 1382
1439 1437 1435 1433 1432 1430 1428 1427 1426 1424 1422 1421 1419 1417 1415 1413 1411 1410 1408 1407 1405 1403 1402 1401 1399 1398 1396 1394 1392 1391 1389 1388 1386 1384 1383 1381 1379 1377 1375 1375 1376 1376
1436 1434 1432 1431 1429 1428 1426 1424 1422 1420 1419 1417 1415 1413 1411 1409 1407 1405 1403 1402 1400 1398 1397 1396 1395 1394 1393 1391 1389 1387 1385 1383 1381 1380 1378 1376 1375 1373 1371 1370 1370 1370
1432 1430 1428 1427 1426 1424 1423 1421 1419 1417 1416 1413 1411 1409 1407 1405 1403 1400 1398 1396 1395 1393 1391 1390 1389 1389 1388 1387 1385 1383 1381 1379 1377 1375 1373 1372 1370 1368 1367 1366 1364 1364
1426 1424 1423 1421 1420 1419 1418 1416 1415 1413 1411 1409 1407 1405 1403 1400 1398 1395 1393 1391 1388 1386 1385 1383 1382 1383 1383 1382 1380 1378 1377 1374 1372 1369 1367 1366 1365 1363 1363 1361 1360 1359
1420 1419 1417 1415 1414 1414 1412 1410 1408 1407 1405 1403 1401 1399 1397 1395 1393 1391 1388 1385 1383 1380 1378 1376 1375 1376 1376 1375 1374 1373 1371 1369 1367 1364 1362 1360 1359 1358 1357 1356 1355 1354
1415 1413 1411 1409 1407 1407 1405 1403 1402 1400 1399 1397 1394 1391 1389 1388 1386 1384 1382 1380 1378 1375 1372 1369 1368 1368 1368 1368 1367 1367 1365 1364 1361 1359 1357 1354 1352 1351 1351 1350 1350 1349
1410 1407 1405 1403 1400 1398 1397 1396 1394 1393 1391 1390 1387 1384 1381 1379 1378 1377 1375 1373 1372 1370 1367 1362 1360 1360 1360 1360 1360 1360 1359 1358 1356 1353 1351 1348 1346 1345 1344 1343 1343 1343
1404 1402 1400 1397 1394 1391 1388 1386 1384 1383 1382 1381 1379 1375 1372 1370 1369 1368 1366 1365 1363 1362 1360 1357 1353 1352 1352 1351 1352 1353 1352 1351 1349 1347 1345 1343 1341 1339 1338 1337 1335 1335
1398 1396 1393 1390 1387 1383 1380 1378 1375 1372 1371 1370 1368 1365 1362 1360 1358 1357 1356 1355 1354 1353 1352 1350 1346 1345 1344 1343 1342 1344 1345 1344 1343 1341 1338 1337 1335 1333 1332 1330 1329 1328
1390 1388 1385 1382 1379 1376 1372 1369 1366 1363 1361 1359 1357 1355 1352 1349 1347 1345 1344 1343 1344 1343 1342 1341 1339 1337 1337 1335 1334 1334 1336 1337 1336 1334 1331 1330 1329 1328 1326 1324 1323 1322
Wind_Speed
23 22 21 20 19 18 18 18 19 20 20 19 19 19 19 21 23 24 22 19 20 21 21 22 24 26 28 31 35 39 44 47 50 50 50 50 50 51 51 53 52 51
23 22 22 21 20 19 18 18 19 20 21 21 21 21 21 21 22 24 24 22 20 20 20 21 23 25 27 28 30 35 39 43 48 49 49 50 51 51 51 52 53 53
21 21 21 21 20 20 20 19 19 19 20 21 22 22 22 22 23 24 25 25 23 21 20 20 22 23 25 27 28 32 34 37 43 46 48 50 51 51 50 50 51 53
20 20 20 20 21 22 21 21 21 21 21 22 22 23 22 21 22 22 24 25 25 23 21 21 21 22 24 26 27 30 31 34 38 42 46 49 51 51 50 50 51 52
21 20 21 21 21 22 22 22 22 22 23 23 24 24 24 23 22 21 21 23 24 24 24 22 22 22 23 24 27 29 29 32 35 37 42 47 49 50 50 50 51 52
23 23 23 23 22 22 22 22 22 23 23 23 23 24 25 25 24 23 22 22 22 23 24 24 24 24 23 24 26 28 29 31 32 34 38 43 45 48 50 51 52 53
25 25 25 24 24 23 23 22 22 22 22 22 23 23 24 24 25 24 24 23 23 23 23 24 24 25 25 26 27 28 28 30 31 33 36 39 41 44 48 51 53 54
25 26 26 26 26 26 25 25 24 23 23 23 22 22 22 22 23 24 24 24 24 24 24 24 25 25 25 27 28 29 29 29 30 32 35 37 38 40 43 47 51 53
27 27 27 28 28 27 27 26 26 25 25 24 23 23 23 22 22 22 22 23 23 23 23 24 25 26 26 27 28 29 30 30 30 32 34 36 38 39 40 42 45 49
31 30 30 30 29 29 28 27 27 27 27 27 26 25 24 24 23 22 21 21 21 21 21 22 23 25 26 27 28 29 29 30 30 32 34 35 37 39 40 41 43 45
32 33 32 31 31 31 30 30 29 28 28 28 28 28 27 26 25 25 24 22 21 20 20 19 20 22 25 27 29 30 30 29 30 31 34 35 36 38 39 41 43 45
30 31 32 32 32 31 31 31 31 30 29 28 28 28 29 28 28 27 26 25 24 22 21 19 18 19 21 24 27 29 30 30 31 32 33 35 36 37 38 40 42 44
26 27 29 31 32 32 32 32 32 32 32 31 30 29 29 29 29 28 28 27 27 26 24 23 21 19 19 20 23 26 28 30 31 33 34 35 36 37 38 39 41 43
26 26 27 28 30 32 33 34 34 34 34 34 33 32 31 30 29 29 29 29 28 28 28 27 26 24 21 20 20 23 25 28 30 32 34 35 36 37 38 39 41 42
28 29 30 29 30 30 31 33 35 36 37 37 36 35 34 33 32 31 31 30 30 30 30 29 29 28 26 24 22 22 23 25 28 31 33 35 36 37 37 39 41 42
30 31 32 33 34 34 33 34 35 36 38 39 39 39 37 36 36 35 34 33 32 31 31 31 30 30 29 28 26 25 24 24 25 28 31 35 37 38 38 39 41 42
30 32 33 35 35 36 37 37 37 38 39 40 41 42 42 41 39 38 36 35 35 34 33 33 32 31 30 29 29 28 27 27 26 27 28 32 36 39 40 40 41 42
33 34 35 36 36 37 38 38 40 41 42 43 43 44 44 45 44 42 40 38 37 37 36 36 34 33 32 30 30 30 30 29 30 29 29 30 34 37 40 42 43 43
37 37 38 39 39 39 39 39 40 41 42 44 45 45 46 47 47 47 46 43 41 40 39 39 37 35 33 32 31 31 31 31 32 32 32 31 32 35 38 41 43 45
42 42 43 43 43 43 43 43 43 42 42 43 44 45 46 47 48 49 49 49 48 46 44 43 41 39 36 34 33 32 32 32 33 35 35 34 34 34 36 40 42 44
45 45 45 47 47 46 45 46 46 45 45 45 45 46 46 47 48 49 50 51 52 51 51 49 46 43 40 38 36 35 34 34 35 36 37 38 37 36 36 38 41 44
46 45 45 46 48 49 49 49 48 48 48 47 47 48 48 48 48 49 49 50 52 53 55 55 53 49 46 43 40 38 37 36 37 38 38 39 40 39 38 38 39 43
44 44 43 44 48 52 54 54 54 53 53 52 51 52 53 52 51 50 51 51 51 53 55 57 57 55 52 49 45 43 41 40 39 40 40 41 41 41 41 40 40 42
42 42 43 44 48 52 56 57 58 58 58 57 57 57 58 58 56 54 53 53 52 53 53 56 58 58 57 55 51 48 45 44 43 42 42 43 43 43 42 42 43 43
45 45 46 47 49 52 54 56 57 59 61 61 59 59 59 62 63 61 58 57 56 55 54 54 56 58 59 59 57 53 49 48 46 45 45 45 44 44 44 44 45 45
49 49 48 49 51 52 54 55 56 57 58 57 55 56 57 60 64 66 65 64 62 60 59 57 57 58 59 60 60 58 54 51 48 47 47 47 46 45 45 45 45 45
Wind_Direction
15 13 12 10 7 1 354 346 339 331 325 320 314 311 308 306 306 306 305 305 303 300 297 293 289 284 279 273 267 262 258 254 252 250 249 248 246 245 244 242 241 241
15 14 14 14 13 10 5 357 348 340 335 330 324 317 311 307 305 304 303 302 299 297 295 293 290 287 283 278 273 267 263 258 254 252 250 248 247 246 245 244 244 243
20 19 19 19 20 18 16 11 4 357 350 345 340 334 325 317 311 307 304 302 299 296 294 292 291 289 286 283 278 272 268 263 258 255 253 250 249 248 246 245 245 245
24 22 20 19 19 18 17 15 11 8 3 359 354 349 344 335 325 316 310 305 301 297 294 292 291 290 288 286 282 277 273 268 262 258 255 254 251 250 248 246 245 246
19 17 15 12 11 11 10 10 8 6 3 1 358 354 352 349 342 333 323 314 307 300 295 292 289 288 287 286 283 280 277 272 267 262 258 256 254 252 250 248 247 246
10 10 10 9 8 7 5 3 1 360 359 357 355 352 350 349 348 344 337 328 319 311 303 296 291 287 286 285 283 281 279 276 273 268 262 260 258 255 253 251 249 248
4 4 4 4 3 3 2 0 356 352 350 349 348 347 345 344 344 343 342 338 331 324 316 307 299 292 288 286 283 282 281 279 277 273 267 264 261 258 255 254 252 250
359 358 358 357 357 356 356 355 353 349 345 341 339 339 339 338 338 337 337 336 334 331 326 319 311 302 295 289 285 283 282 281 279 276 272 269 266 262 258 256 255 254
357 355 353 352 352 352 351 349 347 346 344 341 337 334 332 331 331 331 330 329 329 330 328 324 319 312 305 296 290 286 284 282 280 278 275 272 270 268 264 261 259 258
353 352 351 350 349 348 348 347 346 344 342 341 339 336 332 329 326 325 325 324 323 324 323 322 320 315 310 303 296 290 286 283 281 279 277 274 272 270 268 266 263 261
347 347 347 348 347 344 343 342 342 342 341 340 338 336 334 332 329 325 322 320 319 319 318 318 316 312 308 305 301 295 289 284 281 279 277 275 274 272 271 269 266 263
341 340 340 340 341 340 339 337 336 336 336 336 335 334 334 333 332 330 326 323 319 317 315 314 312 308 304 302 302 300 295 287 281 278 276 274 273 272 271 271 268 265
335 334 333 332 332 332 332 332 331 330 330 330 330 330 331 331 330 330 329 327 324 320 316 312 309 307 305 302 299 299 297 291 284 280 276 274 272 270 270 270 269 268
328 326 324 324 324 324 324 324 324 323 323 323 324 325 325 325 326 326 326 326 325 324 321 317 312 308 308 307 304 300 296 292 288 284 280 277 273 270 269 268 266 266
322 320 319 317 316 316 316 315 315 316 315 315 317 318 319 319 319 319 320 321 322 322 323 322 320 316 313 310 309 308 303 295 288 285 283 281 277 272 269 267 265 263
316 315 314 314 313 312 311 311 310 310 309 308 309 310 311 312 313 313 313 314 315 316 317 318 319 320 319 316 312 311 310 304 295 286 282 280 279 276 272 268 266 264
312 311 309 309 309 309 309 309 308 307 306 305 304 304 305 306 307 308 308 308 309 309 309 310 311 314 319 321 318 314 310 307 304 296 285 277 275 276 275 272 269 267
311 308 306 305 305 305 305 305 305 304 304 303 302 301 301 301 302 302 303 303 303 303 303 304 305 307 310 315 318 317 314 308 304 302 295 284 275 271 272 273 272 271
313 309 306 304 303 302 302 301 300 300 299 299 299 299 298 298 298 299 299 299 299 299 299 299 299 301 304 307 311 314 315 311 306 301 298 293 284 275 270 269 270 272
312 309 306 304 303 302 301 300 299 297 296 295 294 293 293 293 294 295 296 297 297 296 296 296 295 296 299 301 304 306 308 310 308 303 299 297 293 285 276 269 267 267
309 307 305 304 303 302 301 299 298 297 295 293 291 290 288 288 288 289 290 292 293 294 294 293 292 293 295 296 298 300 302 304 305 304 301 298 295 292 286 278 271 267
308 307 305 302 302 302 301 299 297 296 294 293 291 289 287 285 284 284 284 285 287 289 291 292 291 292 292 293 294 295 297 299 300 301 301 299 296 293 291 287 280 273
307 306 304 301 299 300 302 300 297 296 294 292 290 289 286 284 282 281 281 280 281 283 285 288 289 290 291 291 291 293 294 295 295 296 297 297 296 294 291 289 285 280
304 302 302 299 296 296 298 298 297 295 294 292 290 287 286 284 282 280 279 277 277 278 279 282 284 286 288 289 289 290 291 292 292 293 293 293 294 294 292 290 287 284
301 299 299 298 295 293 294 295 295 294 293 291 289 286 285 283 282 281 279 277 276 275 275 276 278 280 283 285 286 286 287 288 289 289 289 289 290 292 292 291 288 285
300 299 298 297 295 293 292 292 294 294 293 291 288 286 284 282 281 281 279 277 276 275 274 274 274 274 276 279 282 283 283 284 285 285 286 287 288 289 290 289 288 284